Weather History for Eureka, NV

Change the Weather History Date:

Saturday, June 29, 2013

  Actual Average Record
Temperature  
Mean Temperature 78 °F 66 °F  
Max Temperature 101 °F 85 °F 101 °F (2013)
Min Temperature 55 °F 46 °F 29 °F (1963)
Degree Days  
Heating Degree Days 0 2  
Month to date heating degree days 80 158  
Since 1 June heating degree days 80 158  
Since 1 July heating degree days 6879 7374  
Cooling Degree Days 13 2  
Month to date cooling degree days 80 27  
Year to date cooling degree days 81 30  
Since 1 June cooling degree days 80 27  
Growing Degree Days 27 (Base 50)    
Moisture  
Dew Point 32 °F    
Average Humidity 28    
Maximum Humidity 51    
Minimum Humidity 5    
Precipitation  
Precipitation 0.00 in 0.02 in 0.14 in (1970)
Month to date precipitation 0.03 0.84  
Year to date precipitation 3.13 5.07  
Sea Level Pressure  
Sea Level Pressure 29.89 in    
Wind  
Wind Speed 7 mph (WSW)    
Max Wind Speed 20 mph    
Max Gust Speed 26 mph    
T = Trace of Precipitation, MM = Missing Value Source: NWS Daily Summary

Daily Weather History Graph

Daily Weather History Graph

Search for Another Location

Airport:

Trip Planner

Search our weather history database for the weather conditions in past years. The results will help you decide how hot, cold, wet, or windy it might be!

Date:

Astronomy

Jun. 29, 2013 Rise Set
Actual Time 5:19 AM PDT 8:15 PM PDT
Civil Twilight 4:46 AM PDT 8:48 PM PDT
Nautical Twilight 4:05 AM PDT 9:29 PM PDT
Astronomical Twilight 3:18 AM PDT 10:16 PM PDT
Moon No Moon Rise 12:33 PM PDT (6/29)
Length of Visible Light 16h 01m
Length of Day
14h 56m
Waning Gibbous, 54% of the Moon is Illuminated
Jun 29
Waning Gibbous
Jun 29
Last Quarter
Jul 8
New
Jul 15
First Quarter
Jul 22
Full

Hourly Weather History & Observations

Time (PDT) Temp. Dew Point Humidity Pressure Visibility Wind Dir Wind Speed Gust Speed Precip Events Conditions
12:53 AM 75.0 °F 37.0 °F 25% 29.92 in - NNW 11.5 mph - N/A   Unknown
1:53 AM 63.0 °F 37.0 °F 38% 29.94 in - South 4.6 mph - N/A   Unknown
2:53 AM 59.0 °F 35.1 °F 41% 29.94 in - South 5.8 mph - N/A   Unknown
3:53 AM 57.9 °F 34.0 °F 41% 29.93 in - South 4.6 mph - N/A   Unknown
4:53 AM 57.0 °F 35.1 °F 44% 29.94 in - SSW 5.8 mph - N/A   Unknown
5:53 AM 55.9 °F 37.0 °F 49% 29.96 in - Calm Calm - N/A   Unknown
6:53 AM 68.0 °F 37.9 °F 33% 29.93 in - SW 5.8 mph - N/A   Unknown
7:53 AM 77.0 °F 37.9 °F 24% 29.92 in - Calm Calm - N/A   Unknown
8:53 AM 82.9 °F 41.0 °F 23% 29.92 in - NNE 4.6 mph - N/A   Unknown
9:53 AM 89.1 °F 37.9 °F 16% 29.90 in - Variable 6.9 mph - N/A   Unknown
10:53 AM 93.0 °F 34.0 °F 12% 29.88 in - Calm Calm - N/A   Unknown
11:53 AM 95.0 °F 30.9 °F 10% 29.87 in - Variable 3.5 mph - N/A   Unknown
12:53 PM 99.0 °F 27.0 °F 8% 29.83 in - NW 9.2 mph 16.1 mph N/A   Unknown
1:53 PM 95.0 °F 27.0 °F 9% 29.86 in - Variable 6.9 mph - N/A   Unknown
2:53 PM 97.0 °F 24.1 °F 7% 29.83 in - North - - N/A   Unknown
3:53 PM 98.1 °F 18.0 °F 6% 29.82 in - SSW 6.9 mph - N/A   Unknown
4:45 PM 99.0 °F 26.1 °F 8% 30.10 in - WNW 13.8 mph 26.5 mph N/A   Unknown
4:53 PM 97.0 °F 26.1 °F 8% 29.81 in - West 11.5 mph 25.3 mph N/A   Unknown
5:53 PM 96.1 °F 28.0 °F 9% 29.82 in - NW 19.6 mph 26.5 mph N/A   Unknown
6:53 PM 93.0 °F 24.1 °F 8% 29.81 in - NW 6.9 mph - N/A   Unknown
7:53 PM 82.9 °F 32.0 °F 16% 29.83 in - ENE 6.9 mph - N/A   Unknown
8:53 PM 77.0 °F 27.0 °F 16% 29.86 in - NNW 6.9 mph - N/A   Unknown
9:53 PM 73.0 °F 33.1 °F 23% 29.88 in - South 10.4 mph - N/A   Unknown
10:53 PM 73.9 °F 35.1 °F 24% 29.87 in - South 5.8 mph - N/A   Unknown
11:53 PM 69.1 °F 35.1 °F 29% 29.88 in - SE 9.2 mph - N/A   Unknown